,

(GMT )
Charleville

Weather History for LFQV - April, 2014

Change the Weather History Date:

Wednesday, April 16, 2014

  Actual Average Record
Temperature  
Mean Temperature 44 °F -  
Max Temperature 60 °F - - ()
Min Temperature 27 °F - - ()
Degree Days  
Heating Degree Days 22    
Moisture  
Dew Point 31 °F    
Average Humidity 57    
Maximum Humidity 93    
Minimum Humidity 21    
Precipitation  
Precipitation 0.00 in - - ()
Sea Level Pressure  
Sea Level Pressure 30.38 in    
Wind  
Wind Speed 3 mph ()    
Max Wind Speed 12 mph    
Max Gust Speed -    
Visibility 10.2 miles    
Events      
T = Trace of Precipitation, MM = Missing Value Source: Averaged Metar Reports

Daily Weather History Graph

Daily Weather History Graph

Search for Another Location

Airport or City:

Trip Planner

Search our weather history database for the weather conditions in past years. The results will help you decide how hot, cold, wet, or windy it might be!

Date:

Astronomy

Apr. 16, 2014 Rise Set
Actual Time 6:47 AM CEST 8:36 PM CEST
Civil Twilight 6:13 AM CEST 9:10 PM CEST
Nautical Twilight 5:31 AM CEST 9:52 PM CEST
Astronomical Twilight 4:45 AM CEST 10:39 PM CEST
Moon 10:11 PM CEST (4/16) 7:19 AM CEST (4/16)
Length of Visible Light 14h 57m
Length of Day
13h 48m
Full, 99% of the Moon is Illuminated
Apr 16
Full
Apr 22
Last Quarter
Apr 29
New
May 7
First Quarter
May 14
Full

Hourly Weather History & Observations

Time (CEST) Temp. Dew Point Humidity Pressure Visibility Wind Dir Wind Speed Gust Speed Precip Events Conditions
12:00 AM 33 °F 29 °F 82% 30.40 in 11 mi West 1.2 mph - -   Clear
1:00 AM 31 °F 29 °F 90% 30.41 in 7 mi Calm Calm - -   Clear
2:00 AM 30 °F 27 °F 85% 30.40 in 9 mi WNW 2.3 mph - -   Clear
3:00 AM 30 °F 28 °F 86% 30.41 in 11 mi WNW 1.2 mph - -   Clear
4:00 AM 31 °F 29 °F 92% 30.40 in 12 mi SSW 4.6 mph - -   Clear
5:00 AM 30 °F 28 °F 89% 30.41 in 9 mi SSW 1.2 mph - -   Clear
6:00 AM 29 °F 27 °F 87% 30.41 in 8 mi NW 2.3 mph - -   Clear
7:00 AM 28 °F 27 °F 93% 30.42 in 7 mi WNW 2.3 mph - -   Clear
8:00 AM 32 °F 31 °F 92% 30.43 in 9 mi Calm Calm - -   Clear
9:00 AM 40 °F 34 °F 72% 30.43 in 11 mi South 2.3 mph - -   Clear
10:00 AM 46 °F 34 °F 53% 30.42 in 11 mi SE 6.9 mph - -   Clear
11:00 AM 50 °F 34 °F 41% 30.42 in 12 mi SE 8.1 mph - -   Clear
12:00 PM 53 °F 30 °F 29% 30.40 in - SSE 9.2 mph - -  
1:00 PM 55 °F 32 °F 30% 30.40 in - SSE 10.4 mph - -  
2:00 PM 56 °F 28 °F 22% 30.37 in - SSE 11.5 mph - -  
3:00 PM 58 °F 32 °F 25% 30.36 in - SSE 9.2 mph - -  
4:00 PM 59 °F 30 °F 22% 30.35 in - South 6.9 mph - -  
5:00 PM 60 °F 32 °F 23% 30.33 in - South 9.2 mph - -  
6:00 PM 60 °F 31 °F 21% 30.32 in - SE 9.2 mph - -  
7:00 PM 59 °F 33 °F 26% 30.31 in - SSE 8.1 mph - -  
8:00 PM 55 °F 32 °F 30% 30.30 in - SSE 5.8 mph - -  
9:00 PM 47 °F 33 °F 47% 30.33 in 12 mi Calm Calm - -   Clear
10:00 PM 40 °F 33 °F 67% 30.34 in 12 mi SE 2.3 mph - -   Clear
11:00 PM 38 °F 33 °F 75% 30.35 in 12 mi West 1.2 mph - -   Clear